{"data":{"norad_id":57261,"intl_designator":"2023-094AV","name":"STARLINK-5485","alt_names":[],"object_type":"PAYLOAD","status":"ACTIVE","operator":null,"country":"US","launch_date":"2023-07-07","launch_site_code":"AFWTR","launch_vehicle":null,"mission":null,"orbit_class":"UNKNOWN","rcs_meters":null,"size_class":null,"mass_kg":null,"dimensions":null,"purposes":["comms"],"wikipedia_slug":null,"has_3d_model":false,"image_url":null,"decayed_at":null,"tle_current":{"epoch":"2026-09-20T14:06:53.610336Z","epoch_age_seconds":116611,"freshness":"FRESH","line1":"1 57261U 23094AV  26263.58812049 -.00000338  00000+0 -27603-5 0  9993","line2":"2 57261  43.0034   9.9501 0001256 266.4568  93.6140 15.27573751176923","mean_motion":15.27573751,"eccentricity":0.0001256,"inclination_deg":43.0034,"raan_deg":9.9501,"arg_perigee_deg":266.4568,"mean_anomaly_deg":93.614,"bstar":-2.7603e-6,"rev_number":17692,"period_min":94.267134340147,"perigee_km":482.20604053364,"apogee_km":483.92957518137,"semimajor_km":6861.2048078575,"source":"CELESTRAK","updated_at":"2026-09-21T09:00:33.593296Z"}}}